May 6 Mississippi TAGA Results Above Detection Limit,,,,,,
Date_Time,Benzene Avg. (ppb),Toluene Avg. (ppb),Xylene Avg. (ppb),Latitude,Longitude,
5/6/2010 15:18:12,5.840,5.202,8.036,30.304070,-89.282524,
5/6/2010 15:18:13,5.884,6.942,9.200,30.304070,-89.282524,
5/6/2010 15:18:14,6.514,5.335,8.496,30.304070,-89.282524,
5/6/2010 15:18:15,5.734,5.514,9.066,30.304070,-89.282524,
5/6/2010 15:18:16,5.013,5.382,8.666,30.304070,-89.282524,
5/6/2010 15:18:17,5.854,6.739,9.034,30.304070,-89.282524,
5/6/2010 15:18:19,5.825,5.491,9.012,30.304070,-89.282524,
5/6/2010 15:18:21,5.704,8.392,9.202,30.304070,-89.282524,
5/6/2010 15:18:22,5.539,6.318,8.850,30.304070,-89.282524,
5/6/2010 15:18:23,8.617,8.907,9.008,30.304071,-89.282524,
5/6/2010 15:18:25,7.791,7.191,9.489,30.304070,-89.282524,
5/6/2010 15:18:26,5.283,5.850,9.329,30.304070,-89.282524,
5/6/2010 15:18:27,6.064,9.219,9.618,30.304070,-89.282524,
5/6/2010 15:18:28,5.644,6.318,9.086,30.304070,-89.282524,
5/6/2010 15:18:29,6.514,8.533,9.327,30.304070,-89.282524
5/6/2010 15:18:30,7.311,5.444,9.333,30.304070,-89.282524
5/6/2010 15:18:31,6.965,9.313,10.029,30.304070,-89.282524
5/6/2010 15:18:32,7.100,7.925,9.358,30.304070,-89.282524
5/6/2010 15:18:33,6.425,6.567,8.679,30.304070,-89.282524
5/6/2010 15:18:34,6.950,7.324,9.642,30.304070,-89.282524
5/6/2010 15:18:35,8.392,6.942,9.049,30.304070,-89.282524
5/6/2010 15:18:36,6.725,5.156,9.833,30.304070,-89.282524
5/6/2010 15:18:37,5.344,6.965,9.752,30.304070,-89.282524
5/6/2010 15:18:39,5.644,6.115,9.601,30.304070,-89.282523
5/6/2010 15:18:41,5.959,6.497,9.593,30.304070,-89.282523
5/6/2010 15:18:42,8.467,5.600,9.117,30.304070,-89.282523
5/6/2010 15:18:43,6.155,8.572,9.696,30.304070,-89.282523
5/6/2010 15:18:44,7.461,8.260,9.155,30.304070,-89.282523
5/6/2010 15:18:45,7.206,6.294,9.233,30.304070,-89.282523
5/6/2010 15:18:46,6.875,7.925,9.453,30.304070,-89.282523
5/6/2010 15:18:47,6.335,5.670,9.671,30.304070,-89.282523
5/6/2010 15:18:49,5.028,6.965,9.791,30.304070,-89.282523
5/6/2010 15:18:52,7.791,7.839,10.215,30.304070,-89.282523
5/6/2010 15:18:53,5.434,6.294,9.763,30.304070,-89.282523
5/6/2010 15:18:54,5.449,6.965,9.723,30.304070,-89.282523
5/6/2010 15:18:55,6.770,7.519,9.610,30.304070,-89.282523
5/6/2010 15:18:56,5.479,6.209,10.273,30.304070,-89.282523
5/6/2010 15:18:57,8.031,6.809,10.034,30.304070,-89.282523
5/6/2010 15:18:58,8.302,8.081,9.932,30.304070,-89.282523
5/6/2010 15:18:59,7.385,7.613,9.653,30.304070,-89.282523
5/6/2010 15:19:01,6.470,7.301,9.785,30.304070,-89.282523
5/6/2010 15:19:02,5.659,7.324,9.902,30.304070,-89.282523
5/6/2010 15:19:03,6.800,7.207,9.599,30.304070,-89.282523
5/6/2010 15:19:04,8.452,7.542,9.549,30.304070,-89.282523
5/6/2010 15:19:05,7.055,8.907,10.083,30.304070,-89.282523
5/6/2010 15:19:06,6.830,7.386,10.283,30.304070,-89.282523
5/6/2010 15:19:07,8.902,6.294,9.866,30.304070,-89.282523
5/6/2010 15:19:08,6.665,6.739,9.967,30.304070,-89.282523
5/6/2010 15:19:09,6.109,7.074,9.553,30.304070,-89.282523
5/6/2010 15:19:10,7.296,7.347,9.322,30.304070,-89.282523
5/6/2010 15:19:11,7.071,6.560,10.117,30.304070,-89.282523
5/6/2010 15:19:12,6.470,6.856,9.979,30.304070,-89.282523
5/6/2010 15:19:13,8.362,5.444,9.815,30.304070,-89.282523
5/6/2010 15:19:14,7.415,7.098,9.426,30.304070,-89.282523
5/6/2010 15:19:15,7.296,5.358,9.973,30.304070,-89.282523
5/6/2010 15:19:16,6.576,7.901,9.732,30.304070,-89.282523
5/6/2010 15:19:17,6.785,6.404,9.739,30.304070,-89.282523
5/6/2010 15:19:18,6.545,7.207,10.092,30.304070,-89.282523
5/6/2010 15:19:19,7.416,6.224,9.750,30.304070,-89.282523
5/6/2010 15:19:20,5.945,6.006,9.635,30.304070,-89.282523
5/6/2010 15:19:21,7.130,7.363,9.804,30.304070,-89.282523
5/6/2010 15:19:22,6.770,7.971,9.864,30.304070,-89.282523
5/6/2010 15:19:23,6.290,6.965,10.389,30.304070,-89.282523
5/6/2010 15:19:24,5.749,7.145,10.241,30.304070,-89.282523
5/6/2010 15:19:25,6.695,8.330,10.211,30.304070,-89.282523
5/6/2010 15:19:26,6.019,6.053,9.739,30.304070,-89.282523
5/6/2010 15:19:27,5.284,5.780,9.984,30.304070,-89.282523
5/6/2010 15:19:28,7.927,6.201,10.330,30.304070,-89.282523
5/6/2010 15:19:29,6.424,7.230,9.352,30.304070,-89.282523
5/6/2010 15:19:30,6.725,5.265,9.968,30.304070,-89.282523
5/6/2010 15:19:32,5.569,6.762,9.554,30.304070,-89.282523
5/6/2010 15:19:35,7.176,7.207,10.117,30.304070,-89.282523
5/6/2010 15:19:36,8.197,7.683,10.072,30.304070,-89.282523
5/6/2010 15:19:37,7.446,5.873,9.902,30.304070,-89.282523
5/6/2010 15:19:38,5.705,6.606,9.532,30.304070,-89.282523
5/6/2010 15:19:39,5.329,5.312,9.705,30.304070,-89.282523
5/6/2010 15:19:40,6.710,6.856,9.147,30.304070,-89.282523
5/6/2010 15:19:41,7.881,6.786,9.797,30.304070,-89.282523
5/6/2010 15:19:42,7.100,6.833,9.675,30.304070,-89.282523
5/6/2010 15:19:43,7.941,6.809,9.779,30.304070,-89.282523
5/6/2010 15:19:44,6.365,7.121,10.294,30.304070,-89.282523
5/6/2010 15:19:45,6.095,8.354,9.847,30.304070,-89.282523
5/6/2010 15:19:46,7.220,5.358,10.271,30.304070,-89.282523
5/6/2010 15:19:47,6.109,5.514,9.641,30.304070,-89.282523
5/6/2010 15:19:48,6.740,7.363,10.217,30.304070,-89.282523
5/6/2010 15:19:49,7.206,7.098,9.365,30.304070,-89.282523
5/6/2010 15:19:50,7.281,6.833,9.684,30.304070,-89.282523
5/6/2010 15:19:51,5.915,7.168,9.863,30.304070,-89.282523
5/6/2010 15:19:52,5.854,7.215,9.187,30.304070,-89.282523
5/6/2010 15:19:53,6.139,5.803,9.913,30.304070,-89.282523
5/6/2010 15:19:54,5.915,9.266,9.538,30.304070,-89.282523
5/6/2010 15:19:55,8.241,5.202,9.873,30.304070,-89.282523
5/6/2010 15:19:58,6.020,6.918,9.454,30.304070,-89.282523
5/6/2010 15:19:59,6.050,7.410,9.913,30.304070,-89.282523
5/6/2010 15:20:01,8.136,5.156,9.915,30.304070,-89.282523
5/6/2010 15:20:02,7.085,6.185,10.543,30.304070,-89.282523
5/6/2010 15:26:25,2.297,7.168,6.138,30.313562,-89.247568
5/6/2010 15:26:50,1.651,7.215,3.014,30.314691,-89.244161
5/6/2010 15:26:51,1.831,5.982,2.818,30.314768,-89.244011
5/6/2010 15:41:50,1.486,6.138,2.786,30.366398,-89.090439
5/6/2010 15:41:51,1.216,5.179,1.731,30.366456,-89.090260
5/6/2010 15:58:11,4.774,6.989,7.593,30.393062,-88.947076
5/6/2010 15:58:11,4.774,6.989,7.593,30.393062,-88.947076
5/6/2010 15:58:12,5.449,7.347,8.082,30.393062,-88.947076
5/6/2010 15:58:14,4.923,5.670,7.692,30.393062,-88.947076
5/6/2010 15:58:15,5.509,7.862,8.021,30.393062,-88.947076
5/6/2010 22:51:16,7.562,10.177,10.876,30.304064,-89.282667
5/6/2010 22:51:17,7.189,11.479,10.086,30.304064,-89.282667
5/6/2010 22:51:23,9.407,10.925,9.864,30.304064,-89.282667
5/6/2010 22:51:26,8.452,10.694,10.262,30.304064,-89.282667
5/6/2010 22:51:44,4.894,9.392,10.295,30.304064,-89.282667
5/6/2010 22:35:42,2.463,10.159,10.230,30.359831,-89.108781
5/6/2010 22:50:32,9.374,9.392,9.766,30.304067,-89.282630
5/6/2010 22:50:38,9.108,9.392,10.161,30.304064,-89.282665
5/6/2010 22:50:41,8.001,9.715,10.605,30.304064,-89.282665
5/6/2010 22:50:49,7.784,10.944,10.302,30.304064,-89.282666
5/6/2010 22:50:58,8.312,11.156,10.451,30.304064,-89.282666
5/6/2010 22:10:30,5.164,13.936,8.636,30.392899,-88.886910
5/6/2010 22:10:32,2.386,9.374,5.500,30.392919,-88.887219
5/6/2010 22:10:37,2.386,11.673,12.016,30.393004,-88.887944
5/6/2010 22:10:38,4.693,17.288,12.230,30.393024,-88.888072
5/6/2010 22:10:39,5.054,15.524,8.962,30.393045,-88.888194
5/6/2010 22:11:52,2.586,10.694,6.617,30.394256,-88.894411
5/6/2010 22:18:21,5.833,10.870,8.748,30.392896,-88.954094
5/6/2010 22:18:22,6.021,16.346,6.881,30.392873,-88.954235
5/6/2010 22:18:23,3.898,9.429,4.532,30.392850,-88.954377
5/6/2010 22:19:29,1.840,10.306,1.424,30.391822,-88.967734
5/6/2010 22:29:31,2.074,10.140,7.395,30.378668,-89.043678
5/6/2010 00:39:27,0.178,2.110,0.721,30.393731,-88.939893
5/6/2010 00:39:28,0.059,0.636,0.485,30.393743,-88.940074
5/6/2010 00:40:18,0.663,0.839,0.837,30.393608,-88.949078
5/6/2010 00:40:19,1.338,1.420,0.857,30.393595,-88.949261
5/6/2010 00:40:37,0.237,0.406,0.480,30.393218,-88.952273
5/6/2010 00:40:38,0.178,0.000,0.674,30.393198,-88.952387
5/6/2010 00:42:05,0.793,0.406,0.584,30.391855,-88.966032
5/6/2010 00:42:06,0.485,0.203,0.468,30.391849,-88.966221
5/6/2010 00:42:25,0.000,0.000,1.362,30.391750,-88.969752
5/6/2010 00:42:26,0.960,1.650,4.670,30.391748,-88.969916
5/6/2010 00:42:27,0.367,0.812,1.056,30.391744,-88.970079
5/6/2010 00:43:42,0.308,1.015,0.597,30.390056,-88.982273
5/6/2010 00:46:19,0.059,1.042,0.445,30.387461,-89.004252
5/6/2010 00:47:44,0.000,4.328,0.051,30.383329,-89.022784
5/6/2010 00:48:59,0.178,0.203,0.495,30.380435,-89.033199
5/6/2010 00:52:16,1.289,2.489,2.039,30.373211,-89.068255
5/6/2010 00:52:17,1.667,5.871,2.000,30.373147,-89.068459
5/6/2010 00:52:18,1.278,2.056,1.237,30.373085,-89.068661
5/6/2010 00:54:13,2.979,1.042,0.048,30.366445,-89.090718
5/6/2010 00:54:28,0.237,0.406,0.419,30.365629,-89.093376
5/6/2010 00:56:00,0.000,4.328,0.000,30.360766,-89.106613
5/6/2010 00:56:16,0.485,1.474,0.885,30.359568,-89.109375
5/6/2010 00:56:17,1.467,0.636,0.990,30.359498,-89.109538
5/6/2010 00:56:38,0.178,0.406,0.513,30.357879,-89.113376
5/6/2010 00:56:39,3.194,1.042,1.103,30.357810,-89.113573
5/6/2010 00:56:40,0.782,2.543,0.991,30.357742,-89.113772
5/6/2010 00:56:41,0.237,0.000,0.536,30.357675,-89.113972
5/6/2010 00:58:35,0.545,2.489,3.596,30.350206,-89.136768
5/6/2010 00:58:36,1.089,6.168,5.403,30.350106,-89.136949
5/6/2010 00:58:37,0.415,2.489,2.735,30.350002,-89.137128
5/6/2010 00:58:38,0.545,1.042,1.186,30.349899,-89.137309
5/6/2010 00:59:15,0.059,0.000,0.421,30.346885,-89.142816
5/6/2010 01:00:27,1.171,0.609,1.911,30.346929,-89.141707
5/6/2010 01:00:28,3.079,6.047,5.505,30.346913,-89.141694
5/6/2010 01:00:29,6.036,5.438,6.939,30.346897,-89.141687
5/6/2010 01:00:30,5.836,5.181,7.002,30.346882,-89.141683
5/6/2010 01:00:31,5.755,5.316,7.421,30.346868,-89.141681
5/6/2010 01:00:32,4.536,8.468,7.397,30.346855,-89.141682
5/6/2010 01:00:33,5.577,7.291,7.652,30.346841,-89.141684
5/6/2010 01:00:34,7.077,9.888,8.447,30.346827,-89.141689
5/6/2010 01:00:35,5.425,5.898,8.069,30.346814,-89.141695
5/6/2010 01:00:36,6.581,6.858,8.103,30.346803,-89.141703
5/6/2010 01:00:37,5.588,6.506,8.054,30.346793,-89.141712
5/6/2010 01:00:38,5.317,7.318,7.712,30.346783,-89.141724
5/6/2010 01:00:39,4.854,7.345,8.567,30.346776,-89.141735
5/6/2010 01:00:40,6.251,8.211,7.774,30.346772,-89.141744
5/6/2010 01:00:41,6.759,4.342,7.931,30.346768,-89.141752
5/6/2010 01:00:42,4.973,5.614,7.957,30.346765,-89.141762
5/6/2010 01:00:43,5.825,9.888,8.449,30.346762,-89.141772
5/6/2010 01:00:44,5.317,5.235,8.302,30.346761,-89.141777
5/6/2010 01:00:45,6.014,6.303,8.092,30.346761,-89.141778
5/6/2010 01:00:46,5.684,2.949,7.982,30.346761,-89.141778
5/6/2010 01:00:47,5.814,5.871,8.079,30.346761,-89.141778
5/6/2010 01:00:48,6.370,4.545,7.756,30.346761,-89.141778
5/6/2010 01:00:49,4.632,6.560,8.552,30.346761,-89.141778
5/6/2010 01:00:50,5.010,6.506,8.074,30.346761,-89.141778
5/6/2010 01:00:51,6.466,7.548,7.164,30.346761,-89.141778
5/6/2010 01:00:52,7.800,4.572,8.023,30.346762,-89.141777
5/6/2010 01:00:53,5.469,6.966,8.231,30.346762,-89.141777
5/6/2010 01:00:54,6.629,7.223,8.203,30.346762,-89.141777
5/6/2010 01:00:55,7.033,4.396,8.185,30.346762,-89.141777
5/6/2010 01:00:56,6.240,11.565,8.460,30.346762,-89.141777
5/6/2010 01:00:57,4.880,5.032,8.009,30.346762,-89.141777
5/6/2010 01:00:58,8.048,10.524,8.078,30.346762,-89.141777
5/6/2010 01:00:59,7.470,3.936,8.538,30.346762,-89.141777
5/6/2010 01:01:00,4.135,6.303,7.808,30.346762,-89.141777
5/6/2010 01:01:01,7.163,7.548,8.629,30.346762,-89.141777
5/6/2010 01:01:02,5.269,6.276,7.883,30.346762,-89.141777
5/6/2010 01:01:03,4.925,5.059,8.813,30.346762,-89.141777
5/6/2010 01:01:04,8.322,4.369,7.981,30.346762,-89.141777
5/6/2010 01:01:05,6.829,9.076,7.851,30.346762,-89.141777
5/6/2010 01:01:06,6.451,6.506,7.997,30.346762,-89.141777
5/6/2010 01:01:07,6.073,10.754,7.303,30.346762,-89.141777
5/6/2010 01:01:08,6.051,7.575,7.978,30.346762,-89.141777
5/6/2010 01:01:09,5.873,7.088,8.347,30.346762,-89.141777
5/6/2010 01:01:10,6.522,7.372,8.352,30.346762,-89.141777
5/6/2010 01:01:11,6.262,4.342,8.093,30.346762,-89.141777
5/6/2010 01:01:12,8.296,4.193,7.771,30.346762,-89.141777
5/6/2010 01:01:13,4.476,5.925,7.963,30.346762,-89.141777
5/6/2010 01:01:14,3.980,5.641,7.405,30.346762,-89.141777
5/6/2010 01:01:15,5.673,10.172,7.945,30.346762,-89.141777
5/6/2010 01:01:17,5.766,6.763,8.462,30.346762,-89.141777
5/6/2010 01:01:18,7.400,5.357,8.122,30.346762,-89.141777
5/6/2010 01:01:19,3.683,5.668,8.204,30.346762,-89.141777
5/6/2010 01:01:20,6.807,8.008,8.043,30.346762,-89.141777
5/6/2010 01:01:21,5.317,7.169,8.308,30.346762,-89.141777
5/6/2010 01:01:22,5.151,5.871,8.191,30.346762,-89.141777
5/6/2010 01:01:23,6.251,5.208,8.119,30.346762,-89.141777
5/6/2010 01:01:24,4.939,6.303,7.716,30.346762,-89.141777
5/6/2010 01:01:25,6.607,5.614,7.634,30.346762,-89.141777
5/6/2010 01:01:26,4.584,7.223,8.161,30.346762,-89.141777
5/6/2010 01:01:27,6.948,5.438,7.581,30.346762,-89.141777
5/6/2010 01:01:28,5.803,6.709,8.647,30.346762,-89.141777
5/6/2010 01:01:29,4.098,3.963,8.046,30.346762,-89.141777
5/6/2010 01:01:30,4.213,8.008,8.233,30.346762,-89.141777
5/6/2010 01:01:31,7.303,4.572,8.420,30.346762,-89.141777
5/6/2010 01:01:32,4.773,6.452,8.089,30.346762,-89.141777
5/6/2010 01:01:33,5.836,3.504,7.689,30.346762,-89.141777
5/6/2010 01:01:34,4.984,6.127,8.364,30.346762,-89.141777
5/6/2010 01:01:35,4.854,6.100,8.469,30.346762,-89.141777
5/6/2010 01:01:36,6.488,6.073,8.209,30.346763,-89.141777
5/6/2010 01:01:37,5.992,4.978,8.293,30.346762,-89.141777
5/6/2010 01:01:38,5.577,8.616,7.981,30.346763,-89.141777
5/6/2010 01:01:39,6.770,6.939,8.706,30.346762,-89.141777
5/6/2010 01:01:40,3.743,8.711,8.025,30.346762,-89.141777
5/6/2010 01:01:41,6.926,2.286,8.087,30.346762,-89.141777
5/6/2010 01:01:42,7.281,7.494,8.927,30.346763,-89.141777
5/6/2010 01:01:43,6.722,6.912,8.157,30.346762,-89.141777
5/6/2010 01:01:44,6.877,3.936,8.710,30.346763,-89.141777
5/6/2010 01:01:45,7.563,3.760,8.201,30.346762,-89.141777
5/6/2010 01:01:46,6.240,7.602,7.969,30.346763,-89.141777
5/6/2010 01:01:47,6.477,6.479,8.543,30.346762,-89.141777
5/6/2010 01:01:48,7.044,7.575,8.113,30.346762,-89.141777
5/6/2010 01:01:49,7.444,7.832,8.037,30.346762,-89.141777
5/6/2010 01:01:50,6.510,6.303,8.381,30.346762,-89.141777
5/6/2010 01:01:51,5.032,4.802,7.908,30.346762,-89.141777
5/6/2010 01:01:52,5.992,7.927,8.399,30.346762,-89.141777
5/6/2010 01:01:53,7.507,5.898,8.266,30.346762,-89.141777
5/6/2010 01:01:54,6.003,8.130,8.203,30.346762,-89.141777
5/6/2010 01:01:55,6.095,5.614,7.924,30.346762,-89.141777
5/6/2010 01:01:56,4.713,5.208,8.213,30.346762,-89.141777
5/6/2010 01:01:59,5.932,6.939,8.432,30.346762,-89.141777
5/6/2010 01:02:00,6.677,8.184,8.355,30.346763,-89.141777
5/6/2010 01:02:01,6.192,5.817,8.382,30.346763,-89.141777
5/6/2010 01:02:02,6.003,6.479,8.005,30.346763,-89.141777
5/6/2010 01:02:03,7.303,6.073,8.022,30.346763,-89.141777
5/6/2010 01:02:04,4.724,3.760,8.338,30.346763,-89.141777
5/6/2010 01:02:05,5.814,5.235,8.441,30.346763,-89.141777
5/6/2010 01:02:06,5.021,3.990,8.151,30.346763,-89.141777
5/6/2010 01:02:07,6.095,6.249,8.764,30.346763,-89.141777
5/6/2010 01:02:08,6.725,5.560,8.666,30.346763,-89.141777
5/6/2010 01:02:09,6.499,6.709,8.591,30.346763,-89.141777
5/6/2010 01:02:10,5.210,3.558,8.379,30.346763,-89.141777
5/6/2010 01:02:11,6.251,6.655,7.868,30.346763,-89.141777
5/6/2010 01:02:12,8.511,4.369,8.064,30.346763,-89.141777
5/6/2010 01:02:13,5.884,6.154,8.626,30.346763,-89.141777
5/6/2010 01:02:14,5.755,7.088,8.103,30.346763,-89.141777
5/6/2010 01:02:15,5.128,6.993,8.495,30.346763,-89.141777
5/6/2010 01:02:16,4.584,5.181,8.064,30.346763,-89.141777
5/6/2010 01:02:17,7.837,6.790,8.711,30.346763,-89.141777
5/6/2010 01:02:18,8.300,5.343,7.932,30.346763,-89.141777
5/6/2010 01:02:19,6.559,5.411,7.573,30.346763,-89.141777
5/6/2010 01:02:20,5.647,6.073,7.955,30.346763,-89.141777
5/6/2010 01:02:21,7.303,4.626,8.640,30.346763,-89.141777
5/6/2010 01:02:22,7.741,5.032,8.531,30.346763,-89.141777
5/6/2010 01:02:23,6.181,6.993,8.233,30.346763,-89.141777
5/6/2010 01:02:24,7.659,6.533,8.524,30.346763,-89.141777
5/6/2010 01:02:26,8.096,7.751,8.431,30.346763,-89.141777
5/6/2010 01:02:27,6.192,5.411,8.899,30.346763,-89.141777
5/6/2010 01:02:28,5.614,6.912,8.373,30.346763,-89.141777
5/6/2010 01:02:29,5.673,5.059,8.849,30.346763,-89.141777
5/6/2010 01:02:30,4.973,6.127,8.191,30.346763,-89.141777
5/6/2010 01:02:31,6.818,5.844,8.279,30.346763,-89.141777
5/6/2010 01:02:32,4.973,5.668,8.029,30.346763,-89.141777
5/6/2010 01:02:33,6.985,4.545,8.837,30.346763,-89.141777
5/6/2010 01:02:34,6.510,6.195,8.083,30.346763,-89.141777
5/6/2010 01:02:34,6.510,6.195,8.083,30.346763,-89.141777
5/6/2010 01:02:35,5.506,5.262,8.509,30.346763,-89.141777
5/6/2010 00:17:58,0.356,3.044,2.453,30.405852,-88.740037
5/6/2010 00:17:59,0.912,1.447,1.240,30.405894,-88.740288
5/6/2010 00:18:00,0.426,2.516,2.009,30.405936,-88.740536
5/6/2010 00:18:01,1.041,3.071,2.507,30.405976,-88.740784
5/6/2010 00:18:02,0.982,4.369,2.416,30.406016,-88.741031
5/6/2010 00:18:03,0.960,4.545,3.866,30.406056,-88.741275
5/6/2010 00:18:04,0.723,8.589,6.810,30.406093,-88.741513
5/6/2010 00:18:05,3.431,15.705,6.615,30.406131,-88.741747
5/6/2010 00:18:06,1.656,8.724,3.284,30.406168,-88.741976
5/6/2010 00:18:07,0.545,4.423,3.543,30.406205,-88.742203
5/6/2010 00:18:08,1.575,13.418,8.233,30.406243,-88.742429
5/6/2010 00:18:09,1.553,8.076,6.626,30.406280,-88.742657
5/6/2010 00:18:10,1.456,11.484,8.431,30.406317,-88.742886
5/6/2010 00:18:11,1.267,7.521,4.380,30.406355,-88.743118
5/6/2010 00:18:12,0.793,6.127,3.419,30.406392,-88.743348
5/6/2010 00:18:13,1.871,14.920,6.269,30.406429,-88.743576
5/6/2010 00:18:14,0.830,5.208,4.164,30.406467,-88.743803
5/6/2010 00:18:15,0.841,5.438,5.395,30.406504,-88.744030
5/6/2010 00:18:16,1.871,9.523,6.083,30.406540,-88.744259
5/6/2010 00:18:17,1.812,16.692,9.617,30.406577,-88.744489
5/6/2010 00:18:18,2.486,7.954,6.149,30.406615,-88.744719
5/6/2010 00:18:19,0.830,9.780,7.266,30.406653,-88.744950
5/6/2010 00:18:20,2.060,11.890,7.338,30.406691,-88.745182
5/6/2010 00:18:21,2.049,6.276,7.505,30.406728,-88.745414
5/6/2010 00:18:22,2.427,8.211,6.649,30.406766,-88.745648
5/6/2010 00:18:23,1.030,4.775,3.170,30.406804,-88.745881
5/6/2010 00:18:24,1.834,3.733,3.486,30.406842,-88.746113
5/6/2010 00:18:25,1.338,8.008,4.002,30.406880,-88.746345
5/6/2010 00:18:26,0.852,7.521,3.423,30.406919,-88.746580
5/6/2010 00:18:27,1.278,4.139,3.493,30.406959,-88.746817
5/6/2010 00:18:28,0.734,4.951,3.278,30.406999,-88.747053
5/6/2010 00:18:29,0.782,6.993,2.800,30.407036,-88.747286
5/6/2010 00:18:30,0.663,5.641,3.118,30.407073,-88.747515
5/6/2010 00:18:31,1.931,8.035,3.809,30.407108,-88.747738
5/6/2010 00:18:32,1.467,7.318,5.400,30.407142,-88.747956
5/6/2010 00:18:33,0.545,6.506,3.553,30.407177,-88.748173
5/6/2010 00:18:34,0.663,3.301,3.461,30.407213,-88.748388
5/6/2010 00:18:35,1.916,6.222,3.666,30.407248,-88.748604
5/6/2010 00:18:36,1.101,2.286,2.736,30.407282,-88.748820
5/6/2010 00:18:37,0.711,7.629,4.533,30.407317,-88.749036
5/6/2010 00:18:38,0.971,5.668,4.661,30.407352,-88.749253
5/6/2010 00:18:39,1.338,7.602,4.221,30.407388,-88.749472
5/6/2010 00:18:40,0.982,4.342,3.954,30.407423,-88.749691
5/6/2010 00:18:41,1.101,5.005,4.362,30.407459,-88.749912
5/6/2010 00:18:42,1.267,8.765,5.761,30.407495,-88.750133
5/6/2010 00:18:43,2.368,6.073,4.382,30.407532,-88.750355
5/6/2010 00:18:44,0.415,2.110,2.117,30.407568,-88.750579
5/6/2010 00:18:45,0.485,2.719,2.021,30.407604,-88.750803
5/6/2010 00:18:46,0.852,3.936,2.296,30.407640,-88.751027
5/6/2010 00:18:47,0.782,6.560,2.899,30.407677,-88.751250
5/6/2010 00:18:48,0.852,8.184,4.323,30.407714,-88.751473
5/6/2010 00:18:49,1.278,4.978,3.839,30.407752,-88.751695
5/6/2010 00:18:50,0.723,2.976,4.074,30.407788,-88.751916
5/6/2010 00:18:51,1.834,8.238,5.902,30.407823,-88.752136
5/6/2010 00:18:52,1.575,7.751,3.442,30.407859,-88.752355
5/6/2010 00:18:53,1.278,6.506,4.429,30.407894,-88.752575
5/6/2010 00:18:54,0.900,7.345,4.090,30.407929,-88.752796
5/6/2010 00:18:55,1.942,7.697,4.226,30.407965,-88.753016
5/6/2010 00:18:56,0.356,4.599,2.897,30.408000,-88.753232
5/6/2010 00:18:57,0.912,1.880,1.427,30.408034,-88.753442
5/6/2010 00:18:59,0.308,1.853,2.055,30.408101,-88.753845
5/6/2010 00:19:00,1.360,5.411,4.000,30.408133,-88.754038
5/6/2010 00:19:01,1.527,8.914,5.370,30.408163,-88.754227
5/6/2010 00:19:02,2.001,11.362,6.762,30.408193,-88.754411
5/6/2010 00:19:03,1.623,11.633,6.343,30.408222,-88.754590
5/6/2010 00:19:04,1.208,1.853,3.225,30.408250,-88.754764
5/6/2010 00:19:05,0.604,5.668,4.490,30.408277,-88.754933
5/6/2010 00:19:06,0.534,3.409,2.564,30.408304,-88.755098
5/6/2010 00:19:07,1.360,1.271,1.221,30.408330,-88.755257
5/6/2010 00:19:08,0.296,1.042,1.414,30.408355,-88.755412
5/6/2010 00:19:09,0.545,2.056,1.460,30.408379,-88.755562
5/6/2010 00:19:10,0.119,0.839,1.052,30.408403,-88.755703
5/6/2010 00:19:11,0.178,1.474,1.345,30.408424,-88.755833
5/6/2010 00:19:12,0.782,0.812,1.459,30.408444,-88.755951
5/6/2010 00:19:13,1.408,3.841,2.211,30.408461,-88.756058
5/6/2010 00:19:14,0.426,2.922,1.900,30.408477,-88.756158
5/6/2010 00:19:15,1.101,2.313,1.788,30.408492,-88.756253
5/6/2010 00:19:16,1.408,1.447,2.174,30.408508,-88.756345
5/6/2010 00:19:17,0.604,1.244,1.962,30.408522,-88.756435
5/6/2010 00:19:18,0.793,1.880,2.000,30.408536,-88.756523
5/6/2010 00:19:19,0.852,2.922,1.467,30.408549,-88.756610
5/6/2010 00:19:20,0.367,1.880,1.117,30.408563,-88.756700
5/6/2010 00:19:21,0.604,3.301,2.368,30.408578,-88.756797
5/6/2010 00:19:22,0.782,4.247,2.756,30.408595,-88.756903
5/6/2010 00:19:23,1.160,2.746,1.292,30.408612,-88.757014
5/6/2010 00:19:24,1.089,1.474,1.128,30.408630,-88.757129
5/6/2010 00:19:25,0.971,0.203,1.094,30.408650,-88.757248
5/6/2010 00:19:26,0.367,3.355,2.040,30.408670,-88.757370
5/6/2010 00:19:27,1.267,4.044,2.757,30.408691,-88.757496
5/6/2010 00:19:28,1.208,4.017,2.583,30.408713,-88.757626
5/6/2010 00:19:29,0.782,4.802,2.375,30.408735,-88.757758
5/6/2010 00:19:30,0.367,1.042,0.826,30.408756,-88.757890
5/6/2010 00:19:31,0.663,2.895,4.292,30.408778,-88.758020
5/6/2010 00:19:32,2.120,5.614,7.153,30.408800,-88.758151
5/6/2010 00:19:33,1.516,13.472,7.572,30.408821,-88.758281
5/6/2010 00:19:34,2.853,13.946,10.233,30.408842,-88.758411
5/6/2010 00:19:35,2.379,5.411,3.169,30.408863,-88.758538
5/6/2010 00:19:36,0.119,0.636,0.621,30.408885,-88.758667
5/6/2010 00:19:37,0.296,0.609,1.431,30.408906,-88.758800
5/6/2010 00:19:38,0.852,2.949,1.788,30.408928,-88.758937
5/6/2010 00:19:39,0.982,2.110,0.830,30.408951,-88.759079
5/6/2010 00:19:40,2.071,14.636,8.572,30.408974,-88.759225
5/6/2010 00:19:41,4.083,12.282,6.032,30.408999,-88.759378
5/6/2010 00:19:42,2.497,9.401,7.391,30.409025,-88.759539
5/6/2010 00:19:43,2.735,9.983,8.643,30.409052,-88.759706
5/6/2010 00:19:44,1.790,17.003,12.047,30.409080,-88.759876
5/6/2010 00:19:45,4.250,16.435,11.752,30.409108,-88.760048
5/6/2010 00:19:46,5.869,12.810,8.081,30.409137,-88.760223
5/6/2010 00:19:47,2.190,14.460,9.595,30.409165,-88.760398
5/6/2010 00:19:48,2.864,16.949,11.626,30.409194,-88.760576
5/6/2010 00:19:49,5.599,24.321,19.146,30.409223,-88.760756
5/6/2010 00:19:50,6.203,26.377,15.872,30.409252,-88.760940
5/6/2010 00:19:51,4.876,13.108,11.992,30.409282,-88.761128
5/6/2010 00:19:52,1.219,6.709,6.873,30.409313,-88.761319
5/6/2010 00:19:53,1.030,9.712,8.710,30.409345,-88.761510
5/6/2010 00:19:54,2.853,9.888,8.104,30.409376,-88.761699
5/6/2010 00:19:55,2.001,13.013,10.168,30.409406,-88.761880
5/6/2010 00:19:56,2.772,15.042,12.050,30.409435,-88.762056
5/6/2010 00:19:57,4.854,29.137,19.391,30.409463,-88.762227
5/6/2010 00:19:58,6.703,30.219,20.422,30.409490,-88.762393
5/6/2010 00:19:59,5.858,20.547,11.510,30.409516,-88.762554
5/6/2010 00:20:00,2.038,15.812,9.130,30.409542,-88.762713
5/6/2010 00:20:01,2.664,14.203,11.265,30.409568,-88.762869